Ireland West Airport Knock, Ireland

7:05 AM IST on April 26, 2018 (GMT +0100)
Connaught

Weather History for EIKN - January, 2014

Change the Weather History Date:

Saturday, January 18, 2014

  Actual Average Record
Temperature  
Mean Temperature 36 °F -  
Max Temperature 39 °F - - ()
Min Temperature 32 °F - - ()
Degree Days  
Heating Degree Days 30    
Moisture  
Dew Point 34 °F    
Average Humidity 93    
Maximum Humidity 100    
Minimum Humidity 81    
Precipitation  
Precipitation 0.00 in - - ()
Sea Level Pressure  
Sea Level Pressure 29.10 in    
Wind  
Wind Speed 3 mph ()    
Max Wind Speed 7 mph    
Max Gust Speed -    
Visibility 8.1 miles    
Events Fog    
T = Trace of Precipitation, MM = Missing Value Source: Averaged Metar Reports

Daily Weather History Graph

Daily Weather History Graph

Search for Another Location

Airport or City:

Astronomy

Jan. 18, 2014 Rise Set
Actual Time 8:42 AM GMT 4:49 PM GMT
Civil Twilight 8:01 AM GMT 5:30 PM GMT
Nautical Twilight 7:17 AM GMT 6:14 PM GMT
Astronomical Twilight 6:35 AM GMT 6:56 PM GMT
Moon 7:49 PM GMT (1/18) 9:08 AM GMT (1/18)
Length of Visible Light 9h 29m
Length of Day
8h 07m
Waning Gibbous, 95% of the Moon is Illuminated
Jan 18
Waning Gibbous
Jan 24
Last Quarter
Jan 30
New
Feb 6
First Quarter
Feb 14
Full

Hourly Weather History & Observations

Time (GMT) Temp. Windchill Dew Point Humidity Pressure Visibility Wind Dir Wind Speed Gust Speed Precip Events Conditions
12:00 AM 37 °F - 37 °F 99% 29.15 in - SW 6.7 mph - -  
1:00 AM 36 °F - 36 °F 98% 29.15 in - SW 4.5 mph - -  
2:00 AM 35 °F - 35 °F 98% 29.15 in - South 2.2 mph - -  
3:00 AM 34 °F - 34 °F 100% 29.15 in - SSW 4.5 mph - -  
4:00 AM 35 °F - 34 °F 94% 29.15 in - South 2.2 mph - -  
5:00 AM 35 °F - 34 °F 93% 29.13 in - South 2.2 mph - -  
6:00 AM 34 °F - 33 °F 97% 29.13 in 19 mi South 4.5 mph - -   Scattered Clouds
6:00 AM 33.8 °F 30.8 °F 33.8 °F 100% 29.09 in - South 3.5 mph - N/A   Clear
6:30 AM 33.8 °F - 32.0 °F 93% 29.09 in - South 2.3 mph - N/A   Clear
7:00 AM 33 °F - 33 °F 98% 29.13 in 19 mi SSE 2.2 mph - -   Scattered Clouds
7:00 AM 33.8 °F - 32.0 °F 93% 29.09 in - SSE 2.3 mph - N/A   Clear
7:30 AM 33.8 °F - 33.8 °F 100% 29.09 in - South 2.3 mph - N/A   Clear
8:00 AM 33 °F - 33 °F 99% 29.12 in 19 mi SSE 2.2 mph - -   Scattered Clouds
8:00 AM 33.8 °F - 33.8 °F 100% 29.09 in 6.2 mi SSE 2.3 mph - N/A   Mostly Cloudy
8:30 AM 33.8 °F - 32.0 °F 93% 29.09 in 6.2 mi South 2.3 mph - N/A   Mostly Cloudy
9:00 AM 34 °F - 33 °F 94% 29.12 in 25 mi South 2.2 mph - - Fog Patches of Fog
9:00 AM 33.8 °F - 33.8 °F 100% 29.09 in 6.2 mi South 2.3 mph - N/A Fog Shallow Fog
9:30 AM 33.8 °F - 32.0 °F 93% 29.09 in 6.2 mi South 1.2 mph - N/A   Mostly Cloudy
10:00 AM 34 °F - 33 °F 95% 29.12 in 25 mi South 2.2 mph - -   Scattered Clouds
10:00 AM 33.8 °F - 33.8 °F 100% 29.06 in 6.2 mi South 2.3 mph - N/A   Mostly Cloudy
10:30 AM 33.8 °F - 33.8 °F 100% 29.09 in 6.2 mi Variable 1.2 mph - N/A Fog Mostly Cloudy
11:00 AM 35 °F - 33 °F 91% 29.11 in 28 mi SSE 2.2 mph - -   Scattered Clouds
11:00 AM 35.6 °F - 33.8 °F 93% 29.06 in 6.2 mi SSE 1.2 mph - N/A   Mostly Cloudy
11:30 AM 35.6 °F - 33.8 °F 93% 29.06 in 6.2 mi South 1.2 mph - N/A   Mostly Cloudy
12:00 PM 36 °F - 34 °F 90% 29.11 in 28 mi NW 2.2 mph - -   Scattered Clouds
12:00 PM 35.6 °F - 33.8 °F 93% 29.09 in 6.2 mi NW 2.3 mph - N/A   Mostly Cloudy
12:30 PM 37.4 °F - 33.8 °F 87% 29.06 in 6.2 mi SW 2.3 mph - N/A   Mostly Cloudy
1:00 PM 37 °F - 35 °F 91% 29.10 in 25 mi NW 2.2 mph - -   Scattered Clouds
1:00 PM 37.4 °F - 35.6 °F 93% 29.06 in 6.2 mi NW 1.2 mph - N/A   Mostly Cloudy
1:30 PM 37.4 °F - 35.6 °F 93% 29.06 in 6.2 mi Calm Calm - N/A   Mostly Cloudy
2:00 PM 39 °F - 37 °F 89% 29.09 in 22 mi Calm Calm - -   Scattered Clouds
2:00 PM 39.2 °F - 37.4 °F 93% 29.06 in 6.2 mi Calm Calm - N/A   Mostly Cloudy
2:30 PM 39.2 °F - 37.4 °F 93% 29.03 in 6.2 mi WNW 2.3 mph - N/A   Mostly Cloudy
3:00 PM 39 °F - 36 °F 86% 29.08 in 22 mi West 2.2 mph - -   Scattered Clouds
3:00 PM 39.2 °F - 35.6 °F 87% 29.06 in 6.2 mi West 2.3 mph - N/A   Mostly Cloudy
3:30 PM 39.2 °F - 35.6 °F 87% 29.06 in 6.2 mi WSW 2.3 mph - N/A   Mostly Cloudy
4:00 PM 38 °F - 35 °F 82% 29.09 in 22 mi West 2.2 mph - -   Scattered Clouds
4:00 PM 39.2 °F - 33.8 °F 81% 29.06 in 6.2 mi West 2.3 mph - N/A   Mostly Cloudy
4:30 PM 37.4 °F 33.8 °F 33.8 °F 87% 29.06 in 6.2 mi WSW 4.6 mph - N/A   Mostly Cloudy
5:00 PM 37 °F - 34 °F 83% 29.11 in 22 mi WSW 4.5 mph - -   Scattered Clouds
5:00 PM 37.4 °F 34.9 °F 33.8 °F 87% 29.06 in 6.2 mi WSW 3.5 mph - N/A   Mostly Cloudy
6:00 PM 36 °F - 33 °F 86% 29.12 in 12 mi WSW 6.7 mph - -   Scattered Clouds
6:00 PM 35.6 °F 30.7 °F 33.8 °F 93% 29.09 in 6.2 mi WSW 5.8 mph - N/A   Mostly Cloudy
7:00 PM 36 °F - 34 °F 90% 29.13 in 12 mi SW 6.7 mph - -   Scattered Clouds
7:00 PM 35.6 °F 30.7 °F 33.8 °F 93% 29.09 in 6.2 mi SW 5.8 mph - N/A   Mostly Cloudy
8:00 PM 36 °F - 35 °F 92% 29.14 in - SW 6.7 mph - -  
9:00 PM 36 °F - 35 °F 93% 29.15 in - WSW 6.7 mph - -  
10:00 PM 36 °F - 35 °F 95% 29.16 in - WSW 6.7 mph - -  
11:00 PM 37 °F - 34 °F 85% 29.16 in - SW 6.7 mph - -